Location: Muenchen
(48.1800°N, 11.5800°E)
Time: 10:54:43
(UTC+01:00)

Vanguard 2 Rocket - Visible Passes

Search period start: 11 December 2016 00:00
Search period end: 21 December 2016 00:00
Orbit: 554 x 3328 km, 32.9° (Epoch: 09 December)

Date Brightness Start Highest point End Pass type
(mag) Time Alt. Az. Time Alt. Az. Time Alt. Az.
12 Dec 11.3 06:40:32 10° S 06:50:40 18° SSE 06:58:47 10° ESE visible
13 Dec 11.4 05:42:44 10° SSE 05:50:24 14° SE 05:57:06 10° ESE visible
14 Dec 11.0 06:51:19 10° SSW 07:04:47 25° SSE 07:14:55 10° ESE visible
15 Dec 11.1 05:51:53 10° S 06:04:21 21° SSE 06:14:31 10° ESE visible
16 Dec 11.2 04:53:48 10° S 05:03:56 16° SE 05:12:53 10° ESE visible
16 Dec 10.7 07:03:18 10° SW 07:18:52 32° SSE 07:30:12 10° ESE visible
17 Dec 11.3 03:58:57 10° SSE 04:03:36 11° SE 04:08:05 10° ESE visible
17 Dec 10.8 06:03:07 10° SSW 06:18:16 29° SSE 06:30:16 10° ESE visible
18 Dec 11.0 05:03:48 10° S 05:17:40 24° SSE 05:29:36 10° ESE visible
18 Dec 10.5 07:16:03 10° SW 07:32:58 39° SSE 07:45:04 10° ESE visible
19 Dec 11.1 04:05:43 10° S 04:17:09 18° SE 04:27:46 10° ESE visible
19 Dec 10.6 06:15:22 10° SW 06:32:12 36° SSE 06:45:22 10° ESE visible
20 Dec 11.2 03:10:13 10° SSE 03:16:50 12° SE 03:23:22 10° ESE visible
20 Dec 10.7 05:15:23 10° SSW 05:31:24 31° SSE 05:45:05 10° E visible
